TimeEDT,TemperatureF,Dew PointF,Humidity,Sea Level PressureIn,VisibilityMPH,Wind Direction,Wind SpeedMPH,Gust SpeedMPH,PrecipitationIn,Events,Conditions,WindDirDegrees,DateUTC
12:55 AM,44.1,41.0,89,30.03,10.0,Calm,Calm,-,N/A,,Partly Cloudy,0,2012-10-22 04:55:00
1:55 AM,45.0,42.1,90,30.04,10.0,Calm,Calm,-,N/A,,Partly Cloudy,0,2012-10-22 05:55:00
2:55 AM,45.0,42.1,90,30.04,9.0,Calm,Calm,-,N/A,,Scattered Clouds,0,2012-10-22 06:55:00
3:55 AM,45.0,41.0,86,30.02,9.0,East,3.5,-,N/A,,Clear,100,2012-10-22 07:55:00
4:55 AM,44.1,41.0,89,30.03,6.0,ENE,3.5,-,N/A,,Clear,60,2012-10-22 08:55:00
5:16 AM,43.0,39.9,89,30.02,6.0,NE,4.6,-,N/A,,Partly Cloudy,50,2012-10-22 09:16:00
5:55 AM,43.0,41.0,93,30.02,7.0,East,4.6,-,N/A,,Partly Cloudy,90,2012-10-22 09:55:00
6:11 AM,43.0,41.0,93,30.02,7.0,Calm,Calm,-,N/A,,Mostly Cloudy,0,2012-10-22 10:11:00
6:55 AM,43.0,41.0,93,30.03,5.0,ENE,3.5,-,N/A,,Partly Cloudy,60,2012-10-22 10:55:00
7:55 AM,44.1,41.0,89,30.03,7.0,NE,5.8,-,N/A,,Overcast,50,2012-10-22 11:55:00
8:55 AM,45.0,42.1,90,30.04,6.0,ENE,4.6,-,N/A,,Partly Cloudy,60,2012-10-22 12:55:00
9:55 AM,46.9,43.0,86,30.05,9.0,ENE,4.6,-,N/A,,Clear,70,2012-10-22 13:55:00
10:55 AM,50.0,45.0,83,30.06,10.0,Calm,Calm,-,N/A,,Clear,0,2012-10-22 14:55:00
11:55 AM,54.0,46.0,75,30.05,10.0,ESE,3.5,-,N/A,,Clear,110,2012-10-22 15:55:00
12:55 PM,57.0,46.0,67,30.05,10.0,Calm,Calm,-,N/A,,Clear,0,2012-10-22 16:55:00
1:55 PM,60.1,45.0,57,30.03,10.0,Calm,Calm,-,N/A,,Clear,0,2012-10-22 17:55:00
2:55 PM,62.1,45.0,53,30.01,10.0,ENE,4.6,-,N/A,,Clear,70,2012-10-22 18:55:00
3:55 PM,62.1,46.0,56,30.02,10.0,NE,4.6,-,N/A,,Clear,50,2012-10-22 19:55:00
4:55 PM,62.1,45.0,53,30.03,10.0,Calm,Calm,-,N/A,,Clear,0,2012-10-22 20:55:00
5:55 PM,61.0,46.0,58,30.03,10.0,East,3.5,-,N/A,,Clear,90,2012-10-22 21:55:00
6:55 PM,57.9,45.0,62,30.03,10.0,Calm,Calm,-,N/A,,Clear,0,2012-10-22 22:55:00
7:55 PM,55.9,45.0,67,30.04,10.0,East,3.5,-,N/A,,Clear,100,2012-10-22 23:55:00
8:55 PM,53.1,44.1,71,30.04,10.0,East,3.5,-,N/A,,Clear,90,2012-10-23 00:55:00
9:55 PM,50.0,43.0,77,30.05,10.0,Calm,Calm,-,N/A,,Clear,0,2012-10-23 01:55:00
10:55 PM,50.0,44.1,80,30.05,10.0,ENE,3.5,-,N/A,,Clear,70,2012-10-23 02:55:00
11:55 PM,48.9,44.1,83,30.04,10.0,NE,3.5,-,N/A,,Clear,50,2012-10-23 03:55:00